Regional Weather Roundup
Issued by NWS

Home | Current Version | Previous Version | Graphics & Text | Print | Product List | Glossary On
Versions: 1 2 3 4 5 6 7 8 9 10 11 12 13 14 15 16 17 18 19 20 21 22 23 24 25 26 27 28 29 30 31 32 33 34 35 36 37 38 39 40 41 42 43 44 45 46 47 48 49 50
000
ASUS43 KLOT 301200
RWRIL

ILLINOIS REGIONAL WEATHER ROUNDUP
NATIONAL WEATHER SERVICE CHICAGO/ROMEOVILLE IL
700 AM CDT TUE JUN 30 2015

NOTE: "FAIR" INDICATES FEW OR NO CLOUDS BELOW 12,000 FEET WITH NO
SIGNIFICANT WEATHER AND/OR OBSTRUCTIONS TO VISIBILITY.

* THESE STATIONS ARE NOT UNDER NWS QUALITY CONTROL. THEY ALSO MAY NOT
  REPORT WEATHER SUCH AS PRECIPITATION OR FOG.

ILZ001-002-007-009-015-016-024-301300-
NORTHWEST ILLINOIS

CITY           SKY/WX    TMP DP  RH WIND       PRES   REMARKS
MOLINE         PTSUNNY   65  62  90 CALM      29.85R FOG
6HR MIN TEMP:  61; 6HR MAX TEMP:  67;

STERLING*      SUNNY     63  61  94 W6        29.84R
$$

ILZ003-004-008-010-011-017-018-301300-
NORTH CENTRAL ILLINOIS

CITY           SKY/WX    TMP DP  RH WIND       PRES   REMARKS
ROCKFORD       PTSUNNY   62  59  90 NW6       29.84R FOG
6HR MIN TEMP:  60; 6HR MAX TEMP:  64;

$$

ILZ005-006-012>014-019>023-301300-
NORTHEAST ILLINOIS

CITY           SKY/WX    TMP DP  RH WIND       PRES   REMARKS
CHICAGO-OHARE  MOSUNNY   63  60  90 NW6       29.79S
6HR MIN TEMP:  62; 6HR MAX TEMP:  66; 6HR PCP:  0.17;

CHICAGO-MIDWAY PTSUNNY   66  62  87 W6        29.80R
6HR MIN TEMP:  65; 6HR MAX TEMP:  68;

AURORA         SUNNY     62  59  90 W3        29.82R FOG
6HR MIN TEMP:  60; 6HR MAX TEMP:  66; 6HR PCP:  0.02;

WAUKEGAN       SUNNY     61  59  93 CALM      29.79R FOG
6HR MIN TEMP:  59; 6HR MAX TEMP:  61;

DUPAGE AIRPORT SUNNY     62  60  93 W3        29.81R
6HR MIN TEMP:  61; 6HR MAX TEMP:  66; 6HR PCP:  0.01;

WHEELING       PTSUNNY   63  59  87 VRB3      29.80S
6HR MIN TEMP:  62; 6HR MAX TEMP:  67; 6HR PCP: TRACE;

NORTHERLY ISL    N/A     66  59  78 W7          N/A
$$

LMZ740>746-301300-
SOUTHERN LAKE MICHIGAN

STATION/POSITION SKY/WX   TEMP    WIND        PRES    VSBY  WAVE
                          AIR SEA DIR/SP/G                  HT/PER
                          (F)     (DEG/KT/KT) (MB)    (MI)  (FT/S)
HARRISON CRIB              65     300/ 10/ 11   N/A
BURNHAM HARBOR             65     270/  7       N/A
CALUMET HARBOR             64     270/  2/  4   N/A
BURNS HARBOR               65     220/  6/  8 1009.1R
MICHIGAN CITY              64     180/  6/  7   N/A
MICHIGAN CITY 6N           64 65  220/  4/  6   N/A           0
ST. JOSEPH                 63 63                N/A           0
$$

ILZ025>027-034>036-040-047-049-050-058-095>099-301300-
WEST-CENTRAL ILLINOIS

CITY           SKY/WX    TMP DP  RH WIND       PRES   REMARKS
QUINCY         SUNNY     66  64  93 W6        29.88R
$$

ILZ028>032-037-038-041>044-048-051>054-059>061-301300-
CENTRAL ILLINOIS

CITY           SKY/WX    TMP DP  RH WIND       PRES   REMARKS
DECATUR        CLOUDY    68  65  90 W5        29.86S THUNDER
PEORIA         SUNNY     67  62  84 W3        29.85R
6HR MIN TEMP:  64; 6HR MAX TEMP:  67;

SPRINGFIELD    SUNNY     69  65  86 W8        29.86R
6HR MIN TEMP:  67; 6HR MAX TEMP:  69;

TAYLORVILLE    NOT AVBL
$$

ILZ033-039-045-046-055>057-062-063-301300-
EAST-CENTRAL ILLINOIS

CITY           SKY/WX    TMP DP  RH WIND       PRES   REMARKS
CHAMPAIGN      PTSUNNY   65  64  97 W5        29.86R FOG
MATTOON        MOSUNNY   67  64  90 SW6       29.86R
$$

ILZ079-100>102-301300-
SOUTHWEST ILLINOIS

CITY           SKY/WX    TMP DP  RH WIND       PRES   REMARKS
ALTON          SUNNY     66  66 100 W5        29.89R FOG
BELLEVILLE     SUNNY     68  68 100 CALM      29.88R
CAHOKIA*       SUNNY     70  66  87 CALM      29.89R
$$

ILZ064>066-069>071-074>076-080>082-084>086-088>090-092>094-301300-
SOUTH-CENTRAL ILLINOIS

CITY           SKY/WX    TMP DP  RH WIND       PRES   REMARKS
CARBONDALE     SUNNY     69  67  93 CALM      29.89R
6HR MIN TEMP:  67; 6HR MAX TEMP:  73;

MT. VERNON     SUNNY     66  63  88 CALM      29.89S
$$

ILZ067-068-072-073-078-083-087-091-301300-
SOUTHEAST ILLINOIS

CITY           SKY/WX    TMP DP  RH WIND       PRES   REMARKS
LAWRENCEVILLE  SUNNY     69  66  90 W5        29.87R
$$

ABBREVIATIONS USED IN REMARKS
   TC - TEMPERATURE IN CELSIUS
  WCI - WIND CHILL INDEX
   HX - HEAT INDEX
  VSB - VISIBILITY
$$




USA.gov is the U.S. government's official web portal to all federal, state and local government web resources and services.